TimeEST,TemperatureF,Dew PointF,Humidity,Sea Level PressureIn,VisibilityMPH,Wind Direction,Wind SpeedMPH,Gust SpeedMPH,PrecipitationIn,Events,Conditions,WindDirDegrees,DateUTC
12:15 AM,39.6,31.5,73,29.83,10.0,SW,10.4,16.1,N/A,,Clear,220,2013-11-14 05:15:00
12:35 AM,39.4,31.1,72,29.83,10.0,SW,10.4,16.1,N/A,,Clear,220,2013-11-14 05:35:00
12:54 AM,39.4,31.1,72,29.83,10.0,SW,9.2,17.3,N/A,,Clear,220,2013-11-14 05:54:00
1:15 AM,39.2,31.1,73,29.83,10.0,SW,9.2,-,N/A,,Clear,220,2013-11-14 06:15:00
1:35 AM,39.2,30.9,72,29.83,10.0,SW,10.4,17.3,N/A,,Clear,220,2013-11-14 06:35:00
1:54 AM,39.2,30.7,72,29.82,10.0,SW,10.4,19.6,N/A,,Clear,220,2013-11-14 06:54:00
2:15 AM,39.2,30.6,71,29.82,10.0,SW,9.2,17.3,N/A,,Clear,220,2013-11-14 07:15:00
2:35 AM,39.2,30.0,70,29.82,10.0,SW,13.8,17.3,N/A,,Clear,220,2013-11-14 07:35:00
2:55 AM,39.2,29.8,69,29.83,10.0,SSW,12.7,19.6,N/A,,Clear,210,2013-11-14 07:55:00
3:15 AM,38.8,29.3,69,29.82,10.0,SW,10.4,17.3,N/A,,Clear,220,2013-11-14 08:15:00
3:35 AM,38.5,29.3,70,29.82,10.0,SW,12.7,18.4,N/A,,Clear,220,2013-11-14 08:35:00
3:55 AM,38.3,29.7,71,29.81,10.0,SW,10.4,-,N/A,,Clear,220,2013-11-14 08:55:00
4:15 AM,38.3,29.3,70,29.81,10.0,SW,11.5,17.3,N/A,,Clear,220,2013-11-14 09:15:00
4:34 AM,38.3,29.3,70,29.81,10.0,SW,9.2,18.4,N/A,,Clear,220,2013-11-14 09:34:00
4:55 AM,38.1,29.7,72,29.81,10.0,SW,9.2,-,N/A,,Clear,220,2013-11-14 09:55:00
5:14 AM,37.9,29.3,71,29.81,10.0,SW,10.4,-,N/A,,Clear,220,2013-11-14 10:14:00
5:35 AM,38.1,29.7,72,29.81,10.0,SW,9.2,16.1,N/A,,Clear,220,2013-11-14 10:35:00
5:55 AM,38.1,29.7,72,29.81,10.0,SW,10.4,16.1,N/A,,Clear,220,2013-11-14 10:55:00
6:14 AM,37.8,29.3,72,29.81,10.0,SW,11.5,17.3,N/A,,Clear,220,2013-11-14 11:14:00
6:35 AM,38.1,29.1,70,29.81,10.0,SW,9.2,16.1,N/A,,Scattered Clouds,220,2013-11-14 11:35:00
6:54 AM,37.8,28.9,71,29.81,10.0,SW,10.4,17.3,N/A,,Scattered Clouds,220,2013-11-14 11:54:00
7:15 AM,37.8,28.9,71,29.81,10.0,SW,11.5,16.1,N/A,,Clear,220,2013-11-14 12:15:00
7:35 AM,37.6,28.9,71,29.81,10.0,SW,9.2,-,N/A,,Clear,220,2013-11-14 12:35:00
7:54 AM,37.4,29.3,73,29.81,10.0,SW,5.8,-,N/A,,Clear,230,2013-11-14 12:54:00
8:15 AM,37.6,29.3,72,29.82,10.0,SW,6.9,-,N/A,,Clear,220,2013-11-14 13:15:00
8:35 AM,38.3,29.3,70,29.81,10.0,WSW,8.1,-,N/A,,Clear,240,2013-11-14 13:35:00
8:55 AM,39.2,29.1,67,29.81,10.0,WSW,6.9,-,N/A,,Clear,240,2013-11-14 13:55:00
9:15 AM,39.7,29.5,67,29.81,10.0,SW,8.1,-,N/A,,Clear,220,2013-11-14 14:15:00
9:34 AM,40.1,29.7,66,29.81,10.0,SW,8.1,-,N/A,,Clear,220,2013-11-14 14:34:00
9:55 AM,41.0,29.7,64,29.81,10.0,SSW,8.1,-,N/A,,Clear,210,2013-11-14 14:55:00
10:14 AM,41.2,30.0,65,29.81,10.0,SSW,9.2,-,N/A,,Scattered Clouds,210,2013-11-14 15:14:00
10:35 AM,42.4,30.9,64,29.81,10.0,SSW,11.5,-,N/A,,Scattered Clouds,200,2013-11-14 15:35:00
10:55 AM,42.4,30.4,62,29.82,10.0,SW,9.2,-,N/A,,Mostly Cloudy,220,2013-11-14 15:55:00
11:14 AM,40.8,29.7,64,29.82,10.0,SW,8.1,16.1,N/A,,Overcast,230,2013-11-14 16:14:00
11:35 AM,40.6,30.2,66,29.82,10.0,WSW,6.9,-,N/A,,Overcast,240,2013-11-14 16:35:00
11:54 AM,40.6,30.2,66,29.80,10.0,SSW,9.2,-,N/A,,Overcast,210,2013-11-14 16:54:00
12:15 PM,40.6,30.9,68,29.79,10.0,SW,8.1,-,N/A,,Overcast,220,2013-11-14 17:15:00
12:35 PM,40.6,31.5,70,29.79,10.0,SSW,11.5,17.3,N/A,,Overcast,200,2013-11-14 17:35:00
12:54 PM,40.1,31.6,72,29.79,10.0,SSW,13.8,20.7,N/A,,Light Drizzle,210,2013-11-14 17:54:00
1:15 PM,40.1,32.0,73,29.79,10.0,SW,15.0,20.7,N/A,,Overcast,220,2013-11-14 18:15:00
1:35 PM,40.3,32.2,73,29.78,10.0,SSW,9.2,18.4,N/A,,Light Drizzle,210,2013-11-14 18:35:00
1:55 PM,40.3,32.0,72,29.78,10.0,SW,6.9,17.3,N/A,,Overcast,220,2013-11-14 18:55:00
2:15 PM,40.6,32.0,71,29.77,10.0,SW,6.9,-,N/A,,Mostly Cloudy,220,2013-11-14 19:15:00
2:34 PM,40.5,32.0,72,29.77,10.0,SW,9.2,17.3,N/A,,Mostly Cloudy,220,2013-11-14 19:34:00
2:55 PM,40.3,32.0,72,29.78,10.0,SW,11.5,17.3,N/A,,Overcast,220,2013-11-14 19:55:00
3:15 PM,40.3,32.0,72,29.77,10.0,SW,9.2,16.1,N/A,,Overcast,220,2013-11-14 20:15:00
3:34 PM,40.3,32.0,72,29.78,10.0,SW,8.1,-,N/A,,Overcast,220,2013-11-14 20:34:00
3:55 PM,39.6,32.7,76,29.78,10.0,SW,6.9,-,N/A,Rain,Rain,230,2013-11-14 20:55:00
4:14 PM,39.4,33.3,79,29.79,10.0,SW,9.2,-,N/A,,Drizzle,230,2013-11-14 21:14:00
4:35 PM,38.5,34.7,86,29.80,7.0,SW,8.1,-,N/A,,Drizzle,230,2013-11-14 21:35:00
4:54 PM,37.9,35.4,91,29.81,5.0,SW,4.6,-,N/A,Rain,Rain,220,2013-11-14 21:54:00
5:15 PM,37.6,35.8,93,29.80,7.0,SW,6.9,-,N/A,,Drizzle,220,2013-11-14 22:15:00
5:35 PM,37.6,36.1,95,29.81,7.0,SW,5.8,-,N/A,,Drizzle,230,2013-11-14 22:35:00
5:54 PM,37.4,35.8,94,29.81,10.0,SW,3.5,-,N/A,Rain,Light Rain,220,2013-11-14 22:54:00
6:15 PM,37.4,35.8,94,29.80,10.0,SSW,4.6,-,N/A,Rain,Light Rain,210,2013-11-14 23:15:00
6:35 PM,37.6,36.0,94,29.79,10.0,SSW,8.1,-,N/A,Rain,Light Rain,210,2013-11-14 23:35:00
6:55 PM,37.6,35.4,92,29.78,10.0,SSW,6.9,-,N/A,,Mostly Cloudy,210,2013-11-14 23:55:00
7:15 PM,37.8,35.6,92,29.78,10.0,SW,5.8,-,N/A,,Scattered Clouds,220,2013-11-15 00:15:00
7:35 PM,37.6,35.6,93,29.78,10.0,WSW,3.5,-,N/A,,Clear,240,2013-11-15 00:35:00
7:55 PM,36.5,34.9,94,29.78,10.0,SW,3.5,-,N/A,,Clear,220,2013-11-15 00:55:00
8:15 PM,36.5,35.1,95,29.78,10.0,SW,4.6,-,N/A,,Clear,220,2013-11-15 01:15:00
8:34 PM,37.6,36.0,94,29.79,10.0,SW,5.8,-,N/A,,Clear,230,2013-11-15 01:34:00
8:55 PM,38.5,35.8,90,29.79,10.0,SSW,6.9,-,N/A,,Scattered Clouds,210,2013-11-15 01:55:00
9:15 PM,38.8,35.4,88,29.79,10.0,SW,4.6,-,N/A,,Mostly Cloudy,230,2013-11-15 02:15:00
9:34 PM,38.3,34.9,87,29.79,10.0,SW,8.1,-,N/A,,Scattered Clouds,220,2013-11-15 02:34:00
9:55 PM,37.8,34.5,88,29.79,10.0,SSW,4.6,-,N/A,,Scattered Clouds,210,2013-11-15 02:55:00
10:15 PM,37.4,34.5,89,29.79,10.0,SSW,3.5,-,N/A,,Mostly Cloudy,210,2013-11-15 03:15:00
10:35 PM,37.4,34.7,90,29.79,10.0,Calm,Calm,-,N/A,,Mostly Cloudy,0,2013-11-15 03:35:00
10:55 PM,37.0,34.3,90,29.80,10.0,SW,3.5,-,N/A,,Overcast,220,2013-11-15 03:55:00
11:14 PM,36.5,34.3,92,29.80,10.0,Calm,Calm,-,N/A,,Overcast,0,2013-11-15 04:14:00
11:35 PM,36.5,34.3,92,29.80,10.0,Calm,Calm,-,N/A,,Overcast,0,2013-11-15 04:35:00
11:55 PM,36.9,34.7,92,29.80,10.0,SW,3.5,-,N/A,,Overcast,220,2013-11-15 04:55:00